AirNav   Air Wisconsin pilot careers
 
 485 users online  

40FD Little's Heliport
Lakeland, Florida, USA

GOING TO LAKELAND?


FAA INFORMATION EFFECTIVE 09 NOVEMBER 2017

Location

FAA Identifier: 40FD
Lat/Long: 28-00-39.8900N / 081-52-45.6700W
28-00.664833N / 081-52.761167W
28.0110806 / -81.8793528
(estimated)
Elevation: 115 ft. / 35 m (estimated)
Variation: 02W (1985)
From city: 4 miles SE of LAKELAND, FL
Time zone: UTC -5 (UTC -4 during Daylight Saving Time)
Zip code: 33801

Heliport Operations

Heliport use: Private use. Permission required prior to landing
Activation date: 11/1975
Control tower: no
ARTCC: MIAMI CENTER
FSS: SAINT PETERSBURG FLIGHT SERVICE STATION
Attendance: MON-FRI DAYLIGHT HOURS
Wind indicator: yes
Segmented circle: no

Heliport Communications

WX AWOS-3 at BOW (7 nm SE): 123.775 (863-533-9004)
WX ASOS at GIF (7 nm NE): 133.675 (863-956-2097)
WX AWOS-3PT at LAL (7 nm W): 118.025 (863-834-2030)
WX AWOS-3 at PCM (15 nm W): 120.025 (813-764-8259)
WX AWOS-3 at X07 (15 nm SE): 124.225 (863-678-1334)
WX ASOS at ZPH (20 nm NW): 118.975 (813-780-0031)

Nearby radio navigation aids

VOR radial/distance  VOR name  Freq  Var
LALr077/7.3LAKELAND VORTAC116.0001E

Heliport Services

Runway Information

Helipad H1

Dimensions: 60 x 60 ft. / 18 x 18 m
Surface: asphalt
Latitude: 28-00.664833N
Longitude: 081-52.761167W
Elevation: 115.0 ft.
Traffic pattern: leftleft

Heliport Ownership and Management from official FAA records

Ownership: Privately-owned
Owner: BERNIE LITTLE
PO BOX 1128
EATON PARK, FL 33840
Phone 863-665-5100
Manager: BERNARD LITTLE
PO BOX 1128
EATON PARK, FL 33840
Phone 863-665-5100

Heliport Operational Statistics

Aircraft based on the field: 1
Helicopters: 1
    

Instrument Procedures

There are no published instrument procedures at 40FD.

Some nearby airports with instrument procedures:

KBOW - Bartow Municipal Airport (7 nm SE)
KGIF - Winter Haven's Gilbert Airport (7 nm NE)
KLAL - Lakeland Linder Regional Airport (7 nm W)
KPCM - Plant City Airport (15 nm W)
X07 - Lake Wales Municipal Airport (15 nm SE)
KZPH - Zephyrhills Municipal Airport (20 nm NW)
 
Loc | Ops | Rwys | IFR | FBO | Links
Com | Nav | Svcs | Stats | Notes

Reliance Aviation
AirBoss

 
Area around 40FD (Little's Heliport)
 
Road maps at: MapQuest Bing Google
 
Aerial photo
No photo
 
Sectional chart

 
Airport distance calculator
Flying to Little's Heliport? Find the distance to fly.

From to 40FD

Sunrise and sunset
Times for 22-Nov-2017
 Local
(UTC-5)
 Zulu
(UTC)
Morning civil twilight06:3111:31
Sunrise06:5611:56
Sunset17:3222:32
Evening civil twilight17:5722:57

Current date and time
Zulu (UTC)  22-Nov-2017 06:28:22
Local (UTC-5)  22-Nov-2017 01:28:22
 
METAR
KBOW 
8nm SE 
220615Z AUTO 00000KT 1/2SM BR OVC004 16/ A2995 RMK AO2
KGIF 
8nm NE 
220620Z AUTO 00000KT 1SM BR VV002 17/17 A2995 RMK AO2 VIS 1/4V5 T01670167
KLAL 
8nm W 
220615Z AUTO 00000KT 1/4SM FG OVC003 15/15 A2995 RMK AO2
KPCM 
15nm W 
220615Z AUTO 00000KT 7SM SCT003 17/17 A2996 RMK AO2
KZPH 
20nm NW 
220615Z AUTO 00000KT 3SM BR CLR 15/15 A2996 RMK AO2 T01510150
TAF
KLAL 
8nm W 
220549Z 2206/2306 VRB03KT 5SM BR SCT004 SCT150 TEMPO 2206/2210 1/4SM FG BKN003 FM221000 VRB03KT 3SM BR SCT003 BKN015 TEMPO 2210/2213 1SM BR BKN003 FM221500 04004KT P6SM SCT035 SCT150 FM221800 06005KT P6SM VCSH SCT025 SCT150 AMD NOT SKED TIL 221200
NOTAMs
Click for the latest NOTAMs
NOTAMs are issued by the DoD/FAA and will open in a separate window not controlled by AirNav.

 

 
 

Would you like to see your business listed on this page?

 If your business provides an interesting product or service to pilots, flight crews, aircraft, or users of the Little's Heliport, you should consider listing it here.  To start the listing process, click on the button below
 
Add a business
 

Other Pages about Little's Heliport

Update a link
 
Copyright © AirNav, LLC. All rights reserved. Privacy Policy  Contact